Sharm El Sheikh, Egypt

12:48 AM EET on April 23, 2018 (GMT +0200)
Sharm El Sheikh

Weather History for HESH - May, 2014

Change the Weather History Date:

Friday, May 2, 2014

  Actual Average Record
Temperature  
Mean Temperature 84 °F -  
Max Temperature 93 °F 93 °F - ()
Min Temperature 75 °F 74 °F - ()
Cooling Degree Days 19    
Growing Degree Days 34 (Base 50)    
Moisture  
Dew Point 53 °F    
Average Humidity 33    
Maximum Humidity 42    
Minimum Humidity 26    
Precipitation  
Precipitation 0.00 in 0.00 in - ()
Sea Level Pressure  
Sea Level Pressure 29.83 in    
Wind  
Wind Speed 9 mph ()    
Max Wind Speed 25 mph    
Max Gust Speed -    
Visibility 6.2 miles    
Events      
T = Trace of Precipitation, MM = Missing Value Source: Averaged Metar Reports

Daily Weather History Graph

Daily Weather History Graph

Search for Another Location

Airport or City:

Astronomy

May. 02, 2014 Rise Set
Actual Time 5:02 AM EET 6:17 PM EET
Civil Twilight 4:37 AM EET 6:42 PM EET
Nautical Twilight 4:07 AM EET 7:11 PM EET
Astronomical Twilight 3:37 AM EET 7:42 PM EET
Moon 7:27 AM EET (5/2) 9:18 PM EET (5/2)
Length of Visible Light 14h 04m
Length of Day
13h 15m
Waxing Crescent, 11% of the Moon is Illuminated
May 2
Waxing Crescent
May 7
First Quarter
May 14
Full
May 21
Last Quarter
May 28
New

Hourly Weather History & Observations

Time (EET) Temp. Heat Index Dew Point Humidity Pressure Visibility Wind Dir Wind Speed Gust Speed Precip Events Conditions
12:00 AM 80.6 °F - 44.6 °F 28% 29.83 in - West 6.9 mph - N/A   Clear
1:00 AM 78.8 °F - 51.8 °F 39% 29.83 in - North 6.9 mph - N/A   Clear
4:00 AM 75.2 °F - 48.2 °F 38% 29.77 in - North 4.6 mph - N/A   Clear
5:00 AM 77.0 °F - 44.6 °F 32% 29.77 in - North 4.6 mph - N/A   Clear
6:00 AM 75.2 °F - 46.4 °F 36% 29.80 in - Calm Calm - N/A   Clear
7:00 AM 80.6 °F - 48.2 °F 32% 29.80 in - Calm Calm - N/A   Clear
8:00 AM 86.0 °F - 51.8 °F 31% 29.83 in - Calm Calm - N/A   Clear
9:00 AM 84.2 °F 83.8 °F 59.0 °F 42% 29.86 in - North 23.0 mph - N/A   Clear
10:00 AM 86.0 °F 84.9 °F 57.2 °F 37% 29.86 in - North 20.7 mph - N/A   Clear
11:00 AM 87.8 °F 86.1 °F 55.4 °F 33% 29.86 in - North 23.0 mph - N/A   Clear
12:00 PM 89.6 °F 87.7 °F 55.4 °F 31% 29.86 in - NE 17.3 mph - N/A   Clear
1:00 PM 89.6 °F 87.7 °F 55.4 °F 31% 29.83 in 6.2 mi NNE 11.5 mph - N/A   Partly Cloudy
2:00 PM 93.2 °F 90.8 °F 53.6 °F 26% 29.83 in 6.2 mi SE 6.9 mph - N/A   Partly Cloudy
3:00 PM 93.2 °F 91.3 °F 55.4 °F 28% 29.83 in - SE 5.8 mph - N/A   Clear
4:00 PM 91.4 °F 89.4 °F 55.4 °F 29% 29.80 in 6.2 mi NE 9.2 mph - N/A   Partly Cloudy
5:00 PM 89.6 °F 87.7 °F 55.4 °F 31% 29.80 in - NE 11.5 mph - N/A   Clear
6:00 PM 87.8 °F 85.7 °F 53.6 °F 31% 29.80 in - North 17.3 mph - N/A   Clear
7:00 PM 87.8 °F 86.1 °F 55.4 °F 33% 29.83 in - North 20.7 mph - N/A   Clear
8:00 PM 84.2 °F 83.8 °F 59.0 °F 42% 29.83 in - North 17.3 mph - N/A   Clear
9:00 PM 82.4 °F - 51.8 °F 35% 29.86 in - North 23.0 mph - N/A   Clear
10:00 PM 82.4 °F - 50.0 °F 32% 29.89 in - North 25.3 mph - N/A   Clear
11:00 PM 80.6 °F 80.3 °F 53.6 °F 39% 29.89 in - North 18.4 mph - N/A   Clear